Location: Centerville
(32.8776°N, 96.6203°W)
Time: 13:34:05
(UTC+00:00)

Helios 1B rocket - Pass Details

Date: 17 June 2021
Orbit: 573 x 583 km, 98.2° (Epoch: 30 July)

Event Time Altitude Azimuth Distance (km) Brightness Sun altitude
Rises 08:37:35 0° 2° (N) 2,790 6.8 -25.7°
Reaches altitude 10° 08:39:52 10° 354° (N) 1,886 5.7 -25.5°
Enters shadow 08:42:38 31° 318° (NW) 1,011 3.7 -25.2°
